Simultaneous Nadir Overpasses (SNOs) Predictions

Prediction of SNOs between AQUA and GOES-15 Satellite Orbit:

Table of predicted SNOs for the next 14.0 days since TLE Epoch: 2/11/2023
Index Date Time (AQUA) AQUA Lat,Lon GOES-15 Lat,Lon Distance(km) Time Diff (sec)
1 02/11/2023 10:20:57 0.21,-129.03 0.06,-128.26 86.37 80
2 02/13/2023 10:07:40 -0.46,-125.78 0.06,-128.25 280.68 80
3 02/13/2023 22:28:46 -0.62,-130.90 -0.07,-128.24 302.35 80
4 02/15/2023 22:15:26 0.02,-127.64 -0.07,-128.21 64.16 80
5 02/17/2023 22:02:06 0.73,-124.39 -0.08,-128.18 430.43 80
6 02/18/2023 10:23:03 0.38,-129.47 0.08,-128.17 147.31 80
7 02/20/2023 10:09:41 -0.31,-126.21 0.09,-128.14 219.53 80
8 02/20/2023 22:30:47 -0.77,-131.32 -0.09,-128.13 362.83 80
9 02/22/2023 22:17:24 -0.05,-128.06 -0.09,-128.09 5.42 80
10 02/24/2023 22:03:59 0.61,-124.79 -0.09,-128.06 372.15 80
